Weather History for West Palm Beach, FL

Change the Weather History Date:

Friday, May 3, 2013

  Actual Average Record
Temperature  
Mean Temperature 76 °F 76 °F  
Max Temperature 84 °F 84 °F 91 °F (1960)
Min Temperature 67 °F 69 °F 55 °F (1925)
Degree Days  
Heating Degree Days 0 0  
Month to date heating degree days 0 0  
Since 1 July heating degree days 164 233  
Cooling Degree Days 11 11  
Month to date cooling degree days 29 33  
Year to date cooling degree days 856 728  
Growing Degree Days 25 (Base 50)    
Moisture  
Dew Point 68 °F    
Average Humidity 76    
Maximum Humidity 97    
Minimum Humidity 55    
Precipitation  
Precipitation 0.54 in 0.09 in 4.20 in (1963)
Month to date precipitation 3.80 0.25  
Year to date precipitation 13.08 14.45  
Snow  
Snow 0.00 in - - ()
Month to date snowfall 0.0  
Since 1 July snowfall 0.0  
Snow Depth 0.00 in    
Sea Level Pressure  
Sea Level Pressure 29.74 in    
Wind  
Wind Speed 8 mph (SSW)    
Max Wind Speed 35 mph    
Max Gust Speed 40 mph    
Visibility 9 miles    
Events Fog , Rain , Thunderstorm    
T = Trace of Precipitation, MM = Missing Value Source: NWS Daily Summary

Daily Weather History Graph

Daily Weather History Graph

Search for Another Location

Airport:

Trip Planner

Search our weather history database for the weather conditions in past years. The results will help you decide how hot, cold, wet, or windy it might be!

Date:

Astronomy

May. 03, 2013 Rise Set
Actual Time 6:40 AM EDT 7:54 PM EDT
Civil Twilight 6:16 AM EDT 8:18 PM EDT
Nautical Twilight 5:46 AM EDT 8:47 PM EDT
Astronomical Twilight 5:16 AM EDT 9:18 PM EDT
Moon 2:28 AM EDT (5/3) 2:19 PM EDT (5/3)
Length of Visible Light 14h 02m
Length of Day
13h 13m
Last Quarter, 37% of the Moon is Illuminated
May 3
Last Quarter
May 9
New
May 18
First Quarter
May 25
Full
May 31
Last Quarter

Hourly Weather History & Observations

Time (EDT) Temp. Heat Index Dew Point Humidity Pressure Visibility Wind Dir Wind Speed Gust Speed Precip Events Conditions
12:38 AM 73.4 °F - 68.0 °F 83% 29.82 in 10.0 mi East 10.4 mph - N/A   Overcast
12:53 AM 73.0 °F - 66.9 °F 81% 29.81 in 10.0 mi East 16.1 mph - N/A   Overcast
1:53 AM 72.0 °F - 68.0 °F 87% 29.77 in 10.0 mi East 11.5 mph - 0.00 in Rain Light Rain
2:07 AM 71.6 °F - 68.0 °F 88% 29.75 in 10.0 mi ENE 11.5 mph - 0.00 in   Mostly Cloudy
2:41 AM 71.6 °F - 68.0 °F 88% 29.75 in 10.0 mi ENE 8.1 mph - 0.00 in   Mostly Cloudy
2:53 AM 71.1 °F - 68.0 °F 90% 29.74 in 10.0 mi East 10.4 mph - 0.00 in Rain Light Rain
3:33 AM 69.8 °F - 68.0 °F 94% 29.74 in 10.0 mi ESE 15.0 mph - 0.00 in Rain , Thunderstorm Light Thunderstorms and Rain
3:53 AM 66.9 °F - 66.9 °F 100% 29.74 in 8.0 mi ESE 17.3 mph 20.7 mph 0.01 in Rain , Thunderstorm Thunderstorms and Rain
4:05 AM 68.0 °F - 66.2 °F 94% 29.72 in 10.0 mi SE 13.8 mph - 0.00 in Rain Light Rain
4:53 AM 70.0 °F - 69.1 °F 97% 29.73 in 10.0 mi ESE 9.2 mph - 0.00 in   Mostly Cloudy
5:14 AM 69.8 °F - 69.8 °F 100% 29.73 in 10.0 mi SW 4.6 mph - N/A   Overcast
5:33 AM 69.8 °F - 68.0 °F 94% 29.74 in 10.0 mi WNW 6.9 mph - N/A   Overcast
5:36 AM 69.8 °F - 68.0 °F 94% 29.74 in 10.0 mi NW 6.9 mph - N/A   Overcast
5:53 AM 69.1 °F - 68.0 °F 96% 29.75 in 10.0 mi WNW 6.9 mph - N/A   Overcast
6:32 AM 69.8 °F - 66.2 °F 88% 29.75 in 10.0 mi SW 8.1 mph - N/A   Mostly Cloudy
6:46 AM 68.0 °F - 66.2 °F 94% 29.75 in 10.0 mi WSW 9.2 mph - N/A   Mostly Cloudy
6:53 AM 68.0 °F - 66.9 °F 96% 29.75 in 10.0 mi SW 6.9 mph - N/A   Mostly Cloudy
7:49 AM 69.8 °F - 69.8 °F 100% 29.75 in 10.0 mi SW 8.1 mph - N/A   Mostly Cloudy
7:53 AM 70.0 °F - 68.0 °F 93% 29.75 in 10.0 mi SW 8.1 mph - N/A   Mostly Cloudy
8:00 AM 69.8 °F - 68.0 °F 94% 29.75 in 10.0 mi SW 8.1 mph - N/A   Scattered Clouds
8:37 AM 71.6 °F - 69.8 °F 94% 29.76 in 10.0 mi SW 9.2 mph - N/A   Mostly Cloudy
8:53 AM 71.1 °F - 69.1 °F 93% 29.76 in 10.0 mi SW 9.2 mph - N/A   Mostly Cloudy
9:40 AM 73.4 °F - 69.8 °F 88% 29.77 in 10.0 mi SW 12.7 mph - N/A   Mostly Cloudy
9:49 AM 73.4 °F - 68.0 °F 83% 29.77 in 10.0 mi WSW 10.4 mph - N/A   Mostly Cloudy
9:53 AM 73.0 °F - 68.0 °F 84% 29.77 in 10.0 mi WSW 10.4 mph - N/A   Mostly Cloudy
10:53 AM 75.9 °F - 66.9 °F 74% 29.78 in 10.0 mi WSW 15.0 mph 23.0 mph N/A   Mostly Cloudy
11:26 AM 77.0 °F - 66.2 °F 69% 29.78 in 10.0 mi WSW 10.4 mph - N/A   Scattered Clouds
11:53 AM 78.1 °F - 66.9 °F 68% 29.78 in 10.0 mi West 12.7 mph 17.3 mph N/A   Scattered Clouds
12:53 PM 79.0 °F - 64.9 °F 62% 29.76 in 10.0 mi Variable 6.9 mph - N/A   Mostly Cloudy
1:53 PM 80.1 °F 81.9 °F 64.9 °F 60% 29.75 in 10.0 mi Variable 4.6 mph - N/A   Mostly Cloudy
2:53 PM 81.0 °F 83.0 °F 66.0 °F 60% 29.72 in 10.0 mi WNW 6.9 mph - N/A   Mostly Cloudy
3:53 PM 84.0 °F 86.3 °F 66.0 °F 55% 29.70 in 10.0 mi Variable 6.9 mph - N/A   Scattered Clouds
4:45 PM 80.6 °F 83.2 °F 68.0 °F 65% 29.69 in 10.0 mi SE 12.7 mph - N/A   Scattered Clouds
4:53 PM 79.0 °F - 68.0 °F 69% 29.69 in 10.0 mi SE 13.8 mph - N/A   Scattered Clouds
5:53 PM 78.1 °F - 66.9 °F 68% 29.68 in 10.0 mi SE 12.7 mph - N/A   Scattered Clouds
6:28 PM 78.8 °F - 66.2 °F 65% 29.68 in 10.0 mi SSE 11.5 mph - N/A Thunderstorm Thunderstorm
6:41 PM 77.0 °F - 69.8 °F 78% 29.68 in 2.0 mi SSW 27.6 mph 34.5 mph 0.00 in Rain , Thunderstorm Heavy Thunderstorms and Rain
6:43 PM 75.2 °F - 69.8 °F 83% 29.69 in 0.5 mi SSW 29.9 mph 39.1 mph 0.00 in Rain , Thunderstorm Heavy Thunderstorms and Rain
6:46 PM 73.4 °F - 69.8 °F 88% 29.71 in 0.2 mi SW 28.8 mph 40.3 mph 0.04 in Fog , Rain , Thunderstorm Heavy Thunderstorms and Rain
6:53 PM 72.0 °F - 70.0 °F 93% 29.70 in 0.8 mi Variable 5.8 mph 40.3 mph 0.36 in Rain , Thunderstorm Heavy Thunderstorms and Rain
6:57 PM 71.6 °F - 69.8 °F 94% 29.70 in 4.0 mi Variable 4.6 mph - 0.10 in Rain , Thunderstorm Heavy Thunderstorms and Rain
7:10 PM 71.6 °F - 69.8 °F 94% 29.70 in 10.0 mi ENE 4.6 mph - 0.10 in Rain , Thunderstorm Light Thunderstorms and Rain
7:19 PM 71.6 °F - 68.0 °F 88% 29.70 in 10.0 mi SSE 4.6 mph - 0.10 in   Mostly Cloudy
7:39 PM 71.6 °F - 69.8 °F 94% 29.71 in 10.0 mi SSW 4.6 mph - 0.10 in Thunderstorm Thunderstorm
7:53 PM 72.0 °F - 69.1 °F 91% 29.72 in 6.0 mi West 6.9 mph - 0.11 in Rain , Thunderstorm Light Thunderstorms and Rain
8:20 PM 71.6 °F - 69.8 °F 94% 29.73 in 10.0 mi WSW 5.8 mph - 0.05 in Rain Light Rain
8:53 PM 71.1 °F - 69.1 °F 93% 29.73 in 10.0 mi WSW 4.6 mph - 0.06 in   Mostly Cloudy
9:53 PM 72.0 °F - 70.0 °F 93% 29.74 in 10.0 mi SSW 8.1 mph - N/A   Overcast
10:53 PM 70.0 °F - 68.0 °F 93% 29.74 in 10.0 mi Calm Calm - N/A   Partly Cloudy
11:53 PM 70.0 °F - 66.9 °F 90% 29.74 in 10.0 mi Calm Calm - N/A   Partly Cloudy